Temperature
13 13 13 13 13 13 12 12 12 12 11 11 11 11 11 11 11 11 11 10 10 10 10 10 10 10 10 10 10 10 10 9 9 9 9 9 9 9 9 8 8 8 8
13 13 13 13 13 13 12 12 12 11 11 11 11 11 11 11 11 10 10 10 10 10 10 10 10 10 9 9 9 9 9 9 9 9 9 9 9 9 8 8 8 8 7
13 13 13 13 13 12 12 12 11 11 11 11 10 10 10 10 10 10 10 10 10 10 10 10 10 10 9 9 9 9 9 9 9 9 9 9 8 8 8 8 8 7 7
12 12 12 13 12 12 12 11 11 11 10 10 10 10 10 10 10 10 10 10 10 10 10 10 10 10 10 9 9 9 9 9 9 9 9 9 8 8 8 7 7 7 6
12 12 12 12 12 12 11 11 11 11 10 10 10 10 10 10 10 10 10 10 10 10 10 10 10 10 10 9 9 9 9 9 8 8 8 8 8 8 7 7 7 6 6
12 12 12 12 12 11 11 11 11 10 10 10 10 10 10 10 10 10 10 10 10 10 10 10 10 9 9 9 9 9 9 8 8 8 8 8 8 7 7 6 6 6 6
12 11 11 11 11 11 11 11 10 10 10 10 10 9 9 9 9 10 10 10 10 10 10 10 10 9 9 9 9 9 9 8 8 8 8 8 7 7 6 6 6 5 5
11 11 11 11 11 11 11 10 10 10 10 10 9 9 9 9 9 9 9 10 10 10 10 9 9 9 9 9 9 9 9 8 8 8 7 7 7 6 6 5 5 5 5
11 11 11 11 11 11 11 11 10 10 10 9 10 9 9 9 9 9 9 9 10 10 9 9 9 9 9 9 9 9 8 8 8 8 8 7 6 6 5 5 5 5 4
11 11 11 11 11 10 11 11 10 10 10 10 9 10 10 10 9 9 9 9 9 9 9 9 9 9 9 9 9 9 8 8 8 8 7 7 6 6 5 5 5 4 4
10 10 10 10 10 10 10 10 10 10 10 10 10 10 10 10 10 10 9 9 9 10 10 9 9 9 9 9 9 9 8 8 8 8 7 7 6 5 5 4 4 4 3
10 10 10 10 10 10 10 10 10 10 10 10 10 10 10 10 10 10 10 10 10 10 10 10 9 9 9 9 8 8 8 8 8 7 7 6 6 6 5 4 4 3 3
9 10 10 10 10 10 10 10 10 10 10 10 10 10 10 10 11 11 11 10 10 10 9 9 9 9 9 8 8 8 8 7 7 7 7 6 6 5 5 4 3 3 3
9 10 10 10 10 10 10 10 10 10 10 10 10 10 10 10 10 11 11 10 9 9 9 9 9 9 9 8 8 8 8 7 7 6 6 6 6 5 5 4 3 3 2
9 10 10 10 10 10 10 10 10 10 10 10 10 10 10 10 10 10 10 11 10 9 9 9 9 9 9 8 8 7 7 7 7 6 6 5 5 5 4 4 3 2 2
9 9 9 9 9 9 10 9 9 9 9 9 9 9 10 10 10 10 10 10 10 10 9 9 9 9 8 8 8 7 7 7 6 6 6 5 5 4 4 3 2 2 1
9 9 9 9 9 9 9 9 9 9 9 9 9 9 9 9 9 10 10 10 10 10 10 9 9 9 8 8 7 7 7 6 6 6 5 5 4 4 3 3 2 1 1
9 9 9 9 9 9 9 9 9 9 9 9 9 9 9 9 9 9 9 9 9 9 9 9 9 8 8 8 7 7 6 6 6 5 5 4 4 3 3 2 1 1 0
8 9 9 9 9 9 9 9 9 9 9 9 9 9 9 9 9 9 9 9 9 9 9 9 9 8 8 7 7 6 6 6 5 5 4 4 3 3 2 2 1 1 0
8 8 9 9 9 9 9 9 9 9 9 9 9 9 9 9 9 9 9 9 9 8 8 8 8 8 7 7 6 6 6 5 5 5 4 3 3 2 2 1 1 0 -0
8 8 8 9 9 9 9 9 9 9 9 9 9 9 10 9 9 9 9 9 9 8 8 8 7 7 7 7 6 6 6 5 5 4 4 3 2 2 2 1 1 0 -1
8 8 8 8 9 9 9 9 9 9 9 9 9 9 9 9 9 9 9 9 8 8 8 8 7 7 7 7 6 5 5 5 4 4 3 3 2 2 1 1 0 -0 -1
7 8 8 8 8 9 9 9 9 9 9 9 9 9 9 9 9 9 8 8 8 8 8 7 7 7 7 6 6 5 5 4 4 3 3 3 2 1 1 0 -0 -1 -1
7 8 8 8 8 9 9 9 9 9 9 9 9 9 9 9 9 8 8 8 8 7 7 7 7 7 6 6 5 5 4 4 3 3 2 2 2 1 1 0 -1 -1 -1
7 7 8 8 8 8 8 8 8 8 9 9 9 9 9 9 8 8 8 8 7 7 7 7 6 6 6 5 5 4 4 3 3 2 1 1 1 1 1 -0 -1 -1 -2
7 7 7 7 8 8 8 8 8 8 8 8 8 8 8 8 8 8 8 7 7 7 7 6 6 6 5 5 4 4 3 3 2 1 1 1 0 -0 -0 -0 -1 -1 -2
Wind_Speed
10 10 9 11 12 12 12 10 9 9 7 7 8 8 8 10 11 11 10 12 12 11 11 11 10 9 8 6 5 4 3 2 2 2 3 4 5 5 7 8 9 10 10
11 11 11 11 11 13 13 12 10 9 7 6 6 8 9 10 11 11 11 11 12 11 11 10 9 8 7 6 5 4 3 1 1 1 2 3 4 5 6 8 9 10 11
13 12 12 11 12 15 14 11 10 7 6 6 6 7 8 9 10 10 11 11 11 10 10 10 9 8 7 6 5 4 2 1 1 1 3 4 5 6 7 8 9 10 11
15 13 11 12 13 14 12 10 10 7 7 7 6 6 6 7 8 9 10 10 10 10 10 10 9 8 7 6 5 4 3 3 2 3 4 5 5 7 8 9 10 11 12
16 13 12 12 14 13 11 12 10 8 8 8 7 5 5 5 6 7 7 9 11 11 10 10 9 8 8 7 6 5 4 4 4 4 5 6 7 8 9 9 10 11 12
15 13 11 13 14 13 12 12 11 9 8 9 7 5 4 4 4 6 7 8 9 11 11 10 9 8 8 8 7 6 5 5 5 6 6 7 8 9 9 10 11 12 13
14 13 11 13 13 13 14 14 10 11 9 8 6 4 1 1 4 5 5 5 7 9 11 11 10 9 8 8 7 7 6 6 7 7 7 8 8 9 10 11 12 12 13
15 14 13 13 13 12 15 15 12 9 8 9 7 7 3 1 3 4 5 6 6 6 7 10 11 10 9 8 8 7 7 8 8 8 8 9 9 10 11 12 12 13 14
15 14 14 14 14 13 15 16 15 12 11 9 9 7 6 6 3 3 4 5 6 5 5 7 10 11 11 10 9 8 8 8 9 9 9 9 10 11 12 12 13 13 14
15 15 15 15 15 13 14 16 15 11 13 12 8 4 3 5 5 3 2 3 5 6 6 6 7 10 11 10 10 9 9 9 9 9 9 10 11 11 12 12 13 14 14
13 14 15 15 15 13 15 15 13 14 12 11 9 6 4 3 3 4 4 4 3 4 6 6 6 7 10 10 10 10 9 8 8 8 9 10 10 11 12 12 13 14 14
10 12 14 15 15 13 15 16 15 15 12 11 9 7 6 6 5 4 4 5 4 3 4 4 6 7 9 10 10 10 9 8 8 8 8 9 10 11 12 12 12 13 14
9 11 12 13 14 14 14 14 15 16 15 14 11 8 7 6 5 4 5 4 3 2 2 3 5 7 8 9 9 10 9 8 8 8 8 8 9 10 11 11 12 12 13
10 11 12 13 13 14 15 15 14 14 14 13 13 10 7 6 5 5 5 5 3 1 2 4 2 5 7 9 9 9 7 7 7 7 7 7 8 9 10 10 11 11 12
9 11 12 13 14 15 16 15 14 15 14 14 13 12 8 7 6 5 5 6 6 5 6 5 3 3 6 7 8 7 6 7 6 6 6 7 7 8 8 9 9 10 11
10 10 12 14 13 15 16 15 13 14 15 14 11 12 10 7 7 6 6 5 5 5 5 4 3 2 4 5 7 6 6 5 5 5 6 6 6 6 7 8 9 9 10
10 12 12 14 14 15 15 15 15 15 16 14 12 13 12 10 8 7 6 5 5 4 4 2 2 2 3 3 3 3 4 3 3 5 5 5 5 6 7 8 8 9 10
10 11 12 13 14 15 15 15 15 16 17 16 15 14 13 10 10 8 7 7 6 5 4 4 2 2 2 3 3 2 1 2 2 4 4 4 5 6 6 7 8 8 9
9 10 12 12 14 15 15 15 16 16 16 16 15 15 14 13 12 8 8 8 6 4 4 4 3 2 1 2 2 1 1 0 1 3 2 3 5 5 6 7 7 8 9
9 10 12 12 13 14 14 14 14 15 14 13 13 14 14 15 14 12 10 9 7 6 5 4 3 2 2 2 2 1 0 0 1 1 2 3 4 4 6 6 7 7 8
9 10 10 11 11 12 13 13 13 14 14 13 12 12 13 14 15 13 10 10 10 7 6 5 4 2 2 2 3 2 1 0 1 1 2 2 2 2 4 6 6 7 8
8 9 10 10 11 11 13 16 15 14 14 14 13 11 11 13 15 16 15 14 13 10 9 6 5 5 4 4 3 3 2 1 2 1 1 2 1 2 3 4 7 8 9
7 9 11 11 11 12 14 15 16 13 13 13 13 11 9 10 14 12 13 13 11 11 12 9 7 6 6 6 6 4 3 2 2 1 1 2 2 2 3 5 7 8 9
7 8 9 10 10 10 15 14 15 12 11 11 12 13 12 11 12 13 11 10 7 6 7 6 7 6 5 6 6 6 4 3 1 1 1 1 2 2 4 5 6 8 10
6 7 8 8 9 9 14 15 14 10 10 10 10 11 12 12 16 18 14 12 9 6 7 10 10 10 10 10 9 6 4 3 0 1 1 0 1 3 3 3 5 8 10
5 6 6 7 9 9 13 15 15 9 10 9 8 10 14 14 17 19 15 14 12 9 9 8 9 9 8 8 9 6 5 3 2 1 1 0 0 2 3 3 3 5 7
Wind_Direction
182 176 174 172 167 164 165 163 163 165 167 166 164 159 158 160 161 162 165 166 164 163 162 160 157 154 153 149 142 137 130 113 86 58 37 21 11 6 360 358 354 351 348
183 181 175 178 173 171 170 169 169 171 172 168 168 164 162 164 164 164 167 168 168 170 172 168 166 164 163 161 158 156 152 139 89 25 3 357 351 347 345 345 343 341 339
183 185 181 181 179 175 172 169 168 166 167 168 170 166 162 166 168 167 169 170 169 171 173 176 175 175 175 175 176 180 184 207 268 316 324 327 330 332 333 334 334 333 332
185 183 187 185 180 175 172 170 169 167 170 168 166 169 166 165 169 171 171 172 173 174 177 180 182 185 185 189 195 201 210 231 260 284 300 309 315 320 322 324 325 327 327
188 185 188 186 179 176 173 174 171 166 168 168 166 164 168 172 172 170 172 177 180 180 182 186 190 197 200 203 208 217 227 241 260 278 290 298 305 310 314 318 320 321 322
189 186 189 186 181 179 176 175 170 166 167 166 160 157 167 179 177 177 182 180 184 185 187 189 190 198 204 210 216 225 238 249 261 274 286 295 301 306 310 313 315 316 318
186 189 191 188 187 186 179 173 168 166 166 157 139 134 79 195 194 192 186 182 187 189 188 190 190 192 201 212 221 229 243 256 265 275 283 290 297 303 307 309 311 314 316
189 191 189 190 190 188 180 176 167 165 166 165 153 146 152 227 247 212 194 193 195 187 191 195 193 194 198 204 217 230 246 260 270 277 284 289 294 299 302 306 310 313 314
194 192 192 189 189 191 187 181 176 169 170 174 166 158 161 196 204 233 214 203 194 193 197 195 197 199 200 204 213 228 243 257 267 276 284 290 294 298 302 306 308 311 313
194 194 195 192 189 193 191 185 179 173 168 174 177 176 160 150 159 187 234 216 203 201 200 198 196 200 201 204 212 223 237 252 264 276 284 290 294 299 302 305 309 312 315
197 195 197 196 192 195 193 184 179 178 177 176 175 167 155 147 140 154 193 206 217 218 206 199 196 198 201 204 210 221 232 246 260 273 283 290 295 300 303 307 310 313 315
201 197 198 198 193 195 194 186 182 180 183 180 177 173 168 167 174 163 178 190 203 223 210 200 198 198 201 204 211 219 227 241 255 269 280 290 297 301 303 308 310 313 315
205 199 198 197 193 197 195 187 184 185 183 184 185 187 184 180 162 155 156 168 184 215 207 215 207 196 200 201 209 217 226 239 249 263 277 287 295 301 306 309 312 315 317
207 201 202 197 193 195 194 190 188 188 186 189 191 187 185 187 174 165 160 156 159 202 222 227 207 198 196 196 206 210 222 236 248 260 272 281 290 298 304 309 312 317 320
205 201 202 197 197 195 193 191 192 191 188 191 193 191 190 191 185 178 166 162 162 187 217 214 204 196 191 192 201 203 216 234 247 259 269 278 287 295 301 308 312 317 321
202 200 205 200 198 196 192 193 191 190 191 192 190 191 194 191 185 180 177 174 169 174 201 205 202 182 178 184 194 196 210 228 241 257 268 276 285 292 302 307 310 314 318
201 202 204 202 198 197 192 193 192 190 193 192 190 194 196 186 185 184 179 175 173 163 185 199 163 152 164 170 172 186 201 213 239 257 269 282 288 296 303 306 309 312 318
203 206 206 202 198 196 194 195 193 192 193 194 194 193 195 188 187 185 183 182 180 171 168 187 176 160 168 172 164 166 185 212 246 263 273 286 295 303 308 310 313 314 318
210 209 204 201 199 195 194 197 197 195 196 196 193 194 192 187 192 187 184 184 178 168 157 164 178 156 148 139 133 116 95 313 288 283 288 304 303 311 321 320 320 319 319
214 209 202 201 200 195 194 195 196 194 194 193 193 194 193 192 193 187 186 183 171 163 153 154 166 157 147 129 134 153 258 297 313 326 316 313 316 325 333 331 325 322 321
217 206 199 201 197 194 193 191 194 192 191 191 192 195 195 191 188 186 185 180 173 172 164 166 175 165 170 165 181 165 196 282 297 349 324 312 318 321 324 329 326 324 327
216 207 200 198 200 199 192 188 190 193 191 191 192 193 189 185 184 183 180 176 176 178 180 179 185 187 190 179 156 155 151 128 278 326 340 303 342 306 299 313 327 334 334
213 208 200 197 204 200 186 188 187 190 191 191 189 186 185 186 180 180 175 170 176 179 178 177 180 187 179 177 162 161 168 175 211 275 11 287 326 301 299 319 332 341 341
211 206 204 198 200 197 185 184 181 185 187 186 187 184 182 179 179 170 164 161 161 167 169 164 167 169 161 159 164 164 159 133 93 12 52 282 314 302 315 315 328 342 344
216 207 206 201 201 198 184 179 175 181 183 183 184 181 178 177 171 164 161 157 151 145 133 134 130 128 129 134 136 125 122 111 100 289 36 64 302 313 314 308 324 339 343
223 212 210 206 201 198 186 178 176 179 178 177 176 178 176 174 169 166 167 164 165 162 143 127 117 112 113 121 129 139 151 141 134 222 252 103 311 349 322 309 316 328 336
Height
1475 1478 1481 1484 1487 1490 1494 1497 1500 1503 1506 1508 1511 1513 1515 1517 1519 1520 1522 1523 1524 1525 1526 1527 1527 1527 1527 1528 1527 1527 1527 1526 1525 1525 1523 1522 1521 1519 1518 1516 1514 1512 1510
1471 1473 1476 1479 1482 1486 1490 1494 1497 1500 1503 1506 1509 1511 1513 1515 1517 1519 1520 1522 1523 1524 1525 1526 1526 1526 1527 1527 1526 1526 1526 1525 1524 1523 1522 1521 1519 1518 1516 1514 1512 1510 1508
1466 1469 1471 1474 1478 1482 1486 1491 1494 1498 1501 1504 1507 1509 1512 1513 1515 1517 1518 1520 1521 1522 1523 1524 1525 1525 1525 1526 1525 1525 1524 1524 1523 1522 1521 1519 1518 1516 1514 1512 1510 1508 1505
1461 1464 1466 1469 1473 1477 1481 1486 1490 1494 1498 1501 1504 1507 1510 1512 1513 1515 1517 1518 1519 1520 1521 1522 1523 1524 1524 1524 1524 1523 1523 1522 1521 1520 1519 1517 1516 1514 1512 1510 1508 1505 1503
1455 1458 1461 1464 1467 1471 1475 1480 1485 1489 1494 1498 1501 1505 1507 1510 1511 1513 1514 1516 1517 1518 1519 1520 1521 1522 1522 1522 1522 1521 1521 1520 1519 1518 1517 1515 1513 1512 1510 1507 1505 1503 1500
1449 1452 1456 1459 1461 1465 1469 1474 1479 1485 1490 1495 1499 1502 1506 1508 1509 1510 1512 1513 1515 1516 1517 1518 1518 1519 1520 1520 1520 1519 1518 1518 1517 1516 1514 1513 1511 1509 1507 1505 1502 1500 1497
1443 1446 1449 1453 1455 1458 1463 1468 1474 1480 1485 1491 1495 1499 1503 1505 1507 1508 1509 1510 1512 1513 1514 1515 1516 1516 1517 1517 1517 1517 1516 1515 1514 1513 1511 1510 1508 1506 1504 1502 1499 1497 1494
1437 1440 1443 1447 1451 1454 1458 1463 1469 1474 1479 1484 1489 1494 1498 1502 1503 1504 1506 1507 1508 1510 1511 1512 1513 1514 1514 1514 1514 1514 1513 1513 1512 1510 1509 1507 1505 1503 1501 1499 1497 1494 1491
1430 1434 1437 1442 1446 1449 1452 1456 1461 1466 1472 1479 1484 1487 1491 1493 1497 1500 1501 1503 1505 1506 1507 1509 1510 1510 1511 1511 1511 1511 1510 1510 1509 1507 1506 1504 1502 1500 1498 1496 1493 1490 1488
1424 1428 1431 1435 1440 1444 1447 1449 1455 1461 1466 1471 1477 1482 1485 1486 1490 1493 1497 1499 1501 1502 1504 1505 1506 1507 1508 1508 1508 1508 1507 1506 1505 1504 1502 1500 1498 1496 1494 1492 1489 1487 1484
1417 1421 1425 1429 1433 1438 1442 1445 1449 1455 1460 1465 1469 1475 1479 1482 1484 1487 1490 1493 1496 1498 1500 1501 1503 1504 1504 1505 1505 1504 1504 1503 1502 1500 1499 1497 1495 1493 1490 1488 1485 1482 1480
1411 1414 1418 1423 1427 1431 1436 1439 1444 1450 1455 1460 1465 1470 1473 1476 1479 1482 1485 1487 1491 1494 1496 1497 1499 1500 1500 1501 1501 1501 1500 1499 1498 1497 1495 1493 1491 1489 1486 1484 1481 1478 1475
1404 1407 1412 1416 1421 1426 1431 1435 1440 1444 1450 1455 1460 1465 1469 1473 1476 1479 1482 1484 1487 1490 1492 1493 1494 1495 1496 1497 1497 1497 1497 1496 1494 1493 1491 1489 1487 1485 1482 1480 1477 1474 1471
1398 1401 1406 1411 1415 1421 1425 1429 1435 1440 1445 1450 1456 1461 1465 1469 1473 1476 1478 1481 1483 1486 1487 1488 1490 1491 1492 1493 1493 1493 1493 1492 1490 1489 1487 1485 1483 1480 1478 1475 1473 1470 1467
1393 1397 1401 1405 1410 1415 1420 1424 1429 1434 1440 1445 1451 1456 1460 1465 1469 1472 1475 1477 1480 1481 1482 1484 1485 1487 1488 1489 1489 1489 1489 1487 1486 1485 1483 1481 1479 1476 1474 1471 1469 1466 1463
1387 1391 1395 1399 1403 1409 1414 1419 1423 1429 1434 1440 1445 1450 1455 1460 1463 1467 1470 1473 1475 1477 1478 1479 1481 1482 1484 1485 1485 1485 1484 1483 1482 1481 1479 1477 1475 1472 1470 1467 1465 1462 1459
1382 1386 1389 1393 1397 1403 1407 1412 1417 1422 1428 1433 1439 1445 1449 1454 1458 1462 1465 1468 1471 1473 1474 1475 1477 1479 1480 1481 1481 1481 1480 1479 1478 1477 1475 1473 1471 1468 1466 1463 1461 1458 1455
1377 1380 1384 1387 1392 1397 1401 1406 1411 1416 1422 1427 1433 1438 1443 1448 1453 1457 1460 1463 1466 1468 1470 1471 1473 1474 1476 1477 1477 1477 1476 1475 1474 1473 1471 1469 1467 1464 1462 1459 1457 1454 1451
1372 1375 1378 1382 1387 1391 1396 1401 1406 1411 1417 1421 1426 1431 1436 1442 1446 1451 1455 1458 1461 1464 1466 1468 1469 1471 1472 1472 1473 1473 1473 1472 1471 1469 1467 1465 1463 1461 1458 1455 1453 1451 1448
1366 1369 1373 1378 1382 1386 1391 1396 1401 1406 1412 1416 1421 1426 1431 1436 1440 1445 1449 1453 1456 1459 1461 1463 1465 1467 1468 1468 1469 1468 1468 1468 1467 1466 1464 1462 1459 1457 1454 1452 1449 1447 1445
1362 1365 1369 1373 1377 1381 1386 1391 1396 1401 1406 1411 1416 1421 1425 1430 1435 1440 1444 1447 1451 1454 1456 1459 1461 1462 1463 1464 1464 1464 1464 1464 1463 1462 1460 1458 1456 1454 1451 1449 1446 1444 1441
1358 1361 1365 1368 1372 1376 1381 1386 1390 1395 1400 1405 1410 1415 1420 1425 1430 1435 1439 1443 1446 1449 1451 1454 1456 1457 1458 1460 1460 1461 1461 1460 1459 1459 1457 1455 1453 1450 1448 1446 1443 1441 1438
1353 1356 1360 1363 1367 1371 1376 1381 1385 1390 1395 1399 1405 1410 1414 1419 1424 1429 1433 1437 1441 1444 1448 1450 1452 1453 1455 1456 1457 1457 1457 1457 1456 1455 1453 1451 1450 1447 1445 1443 1441 1438 1435
1348 1352 1355 1358 1362 1366 1372 1376 1380 1385 1389 1394 1400 1405 1409 1414 1418 1423 1428 1431 1435 1439 1443 1446 1448 1450 1452 1452 1453 1454 1454 1453 1453 1451 1450 1448 1446 1444 1442 1441 1438 1436 1433
1344 1347 1350 1353 1357 1361 1367 1371 1376 1380 1385 1390 1395 1400 1405 1409 1413 1418 1423 1426 1431 1435 1438 1441 1444 1446 1448 1449 1450 1450 1450 1450 1449 1448 1447 1446 1444 1442 1440 1438 1436 1433 1430
1340 1343 1346 1349 1353 1357 1362 1367 1372 1375 1380 1385 1391 1396 1400 1404 1409 1413 1417 1422 1425 1429 1433 1437 1440 1442 1444 1445 1446 1447 1447 1446 1446 1445 1445 1444 1442 1440 1437 1436 1434 1431 1428